This is the latest recevied weather packets stored in our database for station/object W4KBW. If no packets are shown the sender has not sent any weather packets the latest 10 day(s).
| Time | Temp. | Humidity | Pressure | Rain* | Wind** | Luminosity | Snow |
|---|---|---|---|---|---|---|---|
| 1777825012 | 23.89° C | 100% | 1017.3 hPa | 0 mm | - | - | - |
| 1777824082 | 23.89° C | 100% | 1017.3 hPa | 0 mm | - | - | - |
| 1777823405 | 22.78° C | 100% | 1017.4 hPa | 0 mm | - | - | - |
| 1777823152 | 22.78° C | 100% | 1017.4 hPa | 0 mm | - | - | - |
| 1777822384 | 21.67° C | 100% | 1017.4 hPa | 0 mm | - | - | - |
| 1777822222 | 21.67° C | 100% | 1017.4 hPa | 0 mm | - | - | - |
| 1777821322 | 21.67° C | 100% | 1017.2 hPa | 0 mm | - | - | - |
| 1777820625 | 21.67° C | 100% | 1017 hPa | 0 mm | - | - | - |
| 1777820422 | 21.67° C | 100% | 1017 hPa | 0 mm | - | - | - |
| 1777819815 | 21.11° C | 100% | 1016.9 hPa | 0 mm | - | - | - |
| 1777819522 | 21.11° C | 100% | 1016.9 hPa | 0 mm | - | - | - |
| 1777818823 | 21.67° C | 100% | 1016.4 hPa | 0 mm | - | - | - |
| 1777818622 | 21.67° C | 100% | 1016.4 hPa | 0 mm | - | - | - |
| 1777817722 | 21.11° C | 100% | 1016.4 hPa | 0 mm | - | - | - |
| 1777816792 | 20.56° C | 100% | 1016.4 hPa | 0 mm | - | - | - |
| 1777816094 | 20° C | 100% | 1016.4 hPa | 0 mm | - | - | - |
| 1777815892 | 20° C | 100% | 1016.4 hPa | 0 mm | - | - | - |
| 1777814962 | 19.44° C | 100% | 1016.1 hPa | 0 mm | - | - | - |
| 1777814331 | 18.89° C | 100% | 1016 hPa | 0 mm | - | - | - |
| 1777814032 | 18.89° C | 100% | 1016 hPa | 0 mm | - | - | - |
| 1777813102 | 18.89° C | 100% | 1015.9 hPa | 0 mm | - | - | - |
| 1777812172 | 18.89° C | 100% | 1015.8 hPa | 0 mm | - | - | - |
| 1777811499 | 18.33° C | 100% | 1015.6 hPa | 0 mm | - | - | - |
| 1777811272 | 18.33° C | 100% | 1015.6 hPa | 0 mm | - | - | - |
| 1777810372 | 18.33° C | 100% | 1015.4 hPa | 0 mm | - | - | - |
* Rain latest hour (hover to see other rain measurements)
** Current wind speed in m/s (hover to see current wind gust speed)